TimeCDT,TemperatureF,Dew PointF,Humidity,Sea Level PressureIn,VisibilityMPH,Wind Direction,Wind SpeedMPH,Gust SpeedMPH,PrecipitationIn,Events,Conditions,WindDirDegrees,DateUTC
12:15 AM,60.8,59.0,94,29.66,10.0,SE,11.5,-,N/A,,Clear,140,2013-05-20 05:15:00
12:35 AM,60.8,59.0,94,29.67,10.0,South,4.6,-,N/A,,Mostly Cloudy,180,2013-05-20 05:35:00
12:55 AM,60.8,59.0,94,29.66,10.0,SSE,6.9,-,N/A,,Overcast,160,2013-05-20 05:55:00
1:15 AM,62.6,59.0,88,29.60,9.0,ESE,10.4,-,N/A,Rain,Light Rain,120,2013-05-20 06:15:00
1:35 AM,62.6,59.0,88,29.63,10.0,South,9.2,-,N/A,,Overcast,190,2013-05-20 06:35:00
1:55 AM,62.6,59.0,88,29.62,10.0,South,11.5,-,0.02,,Scattered Clouds,180,2013-05-20 06:55:00
2:15 AM,62.6,59.0,88,29.61,10.0,South,11.5,-,N/A,,Partly Cloudy,190,2013-05-20 07:15:00
2:35 AM,62.6,59.0,88,29.59,10.0,South,12.7,19.6,N/A,,Clear,190,2013-05-20 07:35:00
3:15 AM,62.6,60.8,94,29.59,10.0,South,16.1,24.2,N/A,,Scattered Clouds,190,2013-05-20 08:15:00
3:35 AM,62.6,60.8,94,29.56,10.0,South,11.5,18.4,N/A,,Overcast,180,2013-05-20 08:35:00
3:55 AM,62.6,59.0,88,29.56,10.0,South,11.5,-,N/A,,Overcast,190,2013-05-20 08:55:00
4:35 AM,60.8,59.0,94,29.60,10.0,South,10.4,-,N/A,,Clear,180,2013-05-20 09:35:00
4:55 AM,60.8,59.0,94,29.62,10.0,South,11.5,-,N/A,,Clear,190,2013-05-20 09:55:00
5:15 AM,60.8,59.0,94,29.63,10.0,South,10.4,-,N/A,,Clear,180,2013-05-20 10:15:00
5:35 AM,60.8,57.2,88,29.64,10.0,South,11.5,-,N/A,,Clear,190,2013-05-20 10:35:00
5:55 AM,60.8,57.2,88,29.64,10.0,South,12.7,-,N/A,,Clear,180,2013-05-20 10:55:00
6:15 AM,60.8,57.2,88,29.64,10.0,South,10.4,-,N/A,,Clear,190,2013-05-20 11:15:00
6:35 AM,60.8,57.2,88,29.64,10.0,South,8.1,-,N/A,,Clear,180,2013-05-20 11:35:00
6:55 AM,62.6,59.0,88,29.65,10.0,South,12.7,-,N/A,,Clear,180,2013-05-20 11:55:00
7:15 AM,62.6,59.0,88,29.65,10.0,South,15.0,-,N/A,,Clear,190,2013-05-20 12:15:00
7:35 AM,62.6,59.0,88,29.65,10.0,SSW,17.3,25.3,N/A,,Clear,200,2013-05-20 12:35:00
7:55 AM,64.4,59.0,83,29.64,10.0,SSW,17.3,25.3,N/A,,Clear,200,2013-05-20 12:55:00
8:15 AM,66.2,59.0,78,29.64,10.0,SSW,13.8,24.2,N/A,,Clear,210,2013-05-20 13:15:00
8:35 AM,66.2,59.0,78,29.65,10.0,SW,20.7,-,N/A,,Clear,220,2013-05-20 13:35:00
9:15 AM,68.0,59.0,73,29.65,10.0,SSW,15.0,23.0,N/A,,Clear,210,2013-05-20 14:15:00
9:35 AM,69.8,59.0,68,29.65,10.0,SSW,19.6,-,N/A,,Clear,210,2013-05-20 14:35:00
9:55 AM,69.8,59.0,68,29.66,10.0,SW,21.9,27.6,N/A,,Clear,220,2013-05-20 14:55:00
10:35 AM,71.6,60.8,69,29.67,10.0,SSW,15.0,23.0,N/A,,Clear,210,2013-05-20 15:35:00
10:55 AM,73.4,59.0,61,29.68,10.0,SW,15.0,26.5,N/A,,Clear,220,2013-05-20 15:55:00
11:15 AM,73.4,59.0,61,29.67,10.0,SSW,19.6,26.5,N/A,,Clear,210,2013-05-20 16:15:00
11:35 AM,73.4,57.2,57,29.68,10.0,SW,20.7,28.8,N/A,,Clear,220,2013-05-20 16:35:00
11:55 AM,75.2,57.2,53,29.68,10.0,SW,20.7,31.1,N/A,,Clear,220,2013-05-20 16:55:00
12:15 PM,75.2,57.2,53,29.68,10.0,SW,20.7,32.2,N/A,,Clear,220,2013-05-20 17:15:00
12:35 PM,75.2,57.2,53,29.68,10.0,SW,19.6,29.9,N/A,,Clear,230,2013-05-20 17:35:00
12:55 PM,75.2,57.2,53,29.68,10.0,SW,19.6,26.5,N/A,,Clear,230,2013-05-20 17:55:00
1:15 PM,77.0,57.2,50,29.68,10.0,SW,18.4,28.8,N/A,,Clear,230,2013-05-20 18:15:00
1:55 PM,77.0,57.2,50,29.68,10.0,SW,18.4,-,N/A,,Clear,220,2013-05-20 18:55:00
2:15 PM,78.8,57.2,47,29.68,10.0,SW,12.7,21.9,N/A,,Clear,220,2013-05-20 19:15:00
2:35 PM,77.0,57.2,50,29.68,10.0,SSW,16.1,26.5,N/A,,Clear,210,2013-05-20 19:35:00
2:55 PM,78.8,57.2,47,29.69,10.0,SW,17.3,24.2,N/A,,Clear,230,2013-05-20 19:55:00
3:15 PM,78.8,59.0,51,29.68,10.0,SSW,12.7,25.3,N/A,,Clear,210,2013-05-20 20:15:00
3:35 PM,78.8,59.0,51,29.66,10.0,SSW,18.4,27.6,N/A,,Clear,200,2013-05-20 20:35:00
3:55 PM,78.8,59.0,51,29.66,10.0,SSW,17.3,25.3,N/A,,Clear,200,2013-05-20 20:55:00
4:15 PM,78.8,60.8,54,29.65,10.0,SSW,20.7,26.5,N/A,,Clear,200,2013-05-20 21:15:00
4:35 PM,78.8,59.0,51,29.64,10.0,South,19.6,26.5,N/A,,Clear,180,2013-05-20 21:35:00
4:55 PM,78.8,59.0,51,29.64,10.0,South,13.8,21.9,N/A,,Clear,190,2013-05-20 21:55:00
5:15 PM,77.0,60.8,57,29.63,10.0,South,16.1,27.6,N/A,,Clear,190,2013-05-20 22:15:00
5:35 PM,77.0,62.6,61,29.63,10.0,South,19.6,26.5,N/A,,Scattered Clouds,180,2013-05-20 22:35:00
5:55 PM,77.0,62.6,61,29.63,10.0,South,17.3,28.8,N/A,,Partly Cloudy,180,2013-05-20 22:55:00
6:15 PM,75.2,62.6,65,29.61,10.0,South,18.4,25.3,N/A,,Clear,180,2013-05-20 23:15:00
6:35 PM,75.2,62.6,65,29.62,10.0,South,16.1,26.5,N/A,,Scattered Clouds,180,2013-05-20 23:35:00
6:55 PM,75.2,62.6,65,29.60,10.0,South,19.6,25.3,N/A,,Partly Cloudy,180,2013-05-20 23:55:00
7:15 PM,75.2,64.4,69,29.58,10.0,South,21.9,-,N/A,,Mostly Cloudy,170,2013-05-21 00:15:00
7:35 PM,73.4,64.4,73,29.58,10.0,South,12.7,23.0,N/A,,Partly Cloudy,170,2013-05-21 00:35:00
7:55 PM,73.4,62.6,69,29.57,10.0,SSE,15.0,-,N/A,,Mostly Cloudy,160,2013-05-21 00:55:00
8:15 PM,71.6,62.6,73,29.58,10.0,South,11.5,19.6,N/A,,Overcast,170,2013-05-21 01:15:00
8:35 PM,71.6,62.6,73,29.59,10.0,SSW,11.5,18.4,N/A,,Mostly Cloudy,200,2013-05-21 01:35:00
9:15 PM,71.6,64.4,78,29.59,10.0,South,5.8,-,N/A,,Overcast,190,2013-05-21 02:15:00
9:35 PM,69.8,64.4,83,29.59,10.0,South,6.9,-,N/A,,Overcast,190,2013-05-21 02:35:00
9:55 PM,62.6,55.4,77,29.61,2.0,South,15.0,41.4,0.08,Rain,Rain,190,2013-05-21 02:55:00
10:15 PM,62.6,55.4,77,29.59,10.0,South,6.9,-,N/A,,Overcast,180,2013-05-21 03:15:00
10:35 PM,60.8,57.2,88,29.61,10.0,South,10.4,-,N/A,,Overcast,180,2013-05-21 03:35:00
10:55 PM,60.8,57.2,88,29.60,10.0,South,10.4,-,N/A,,Mostly Cloudy,180,2013-05-21 03:55:00
11:15 PM,60.8,57.2,88,29.61,10.0,SSE,8.1,-,N/A,,Partly Cloudy,160,2013-05-21 04:15:00
11:35 PM,60.8,57.2,88,29.61,10.0,South,10.4,-,N/A,,Clear,170,2013-05-21 04:35:00
11:55 PM,60.8,57.2,88,29.61,10.0,South,8.1,-,0.01,,Clear,170,2013-05-21 04:55:00